SWA501 KMCO-MROC

Flight info

Callsign SWA501
Flight time 2h 35m
Altitude 35000
Route FSHUN4 PLUMR DCT SHEEK Q118 FEMID Q79 MCLAW Y442 FUNDI UM335 ALVEK DCT SELEK UZ403 PIRAS BARRA4P
Aircraft B38M/M-SDE1FGHILORVWXY/HB1

Departure

Time 2026-05-07 15:15
Airport Orlando International Airport (KMCO)

Arrival

Time 2026-05-07 17:50
Airport Juan Santamaría International Airport (MROC)
Time Latitude Longitude Altitude Speed Heading
2026-05-07 14:49 28.43509 -81.30375 97 ft 0 kts 74°
2026-05-07 15:04 28.43504 -81.30396 97 ft 3 kts 74°
2026-05-07 15:05 28.43499 -81.30415 97 ft 3 kts 57°
2026-05-07 15:05 28.43488 -81.30425 96 ft 3 kts 347°
2026-05-07 15:05 28.43470 -81.30414 98 ft 3 kts 324°
2026-05-07 15:05 28.43462 -81.30407 97 ft 0 kts 324°
2026-05-07 15:08 28.43468 -81.30412 99 ft 2 kts 321°
2026-05-07 15:09 28.43486 -81.30429 97 ft 5 kts 321°
2026-05-07 15:09 28.43520 -81.30451 100 ft 7 kts 338°
2026-05-07 15:09 28.43573 -81.30455 97 ft 9 kts 11°
2026-05-07 15:09 28.43626 -81.30412 97 ft 11 kts 47°
2026-05-07 15:10 28.43678 -81.30337 98 ft 13 kts 52°
2026-05-07 15:10 28.43746 -81.30261 98 ft 15 kts 15°
2026-05-07 15:10 28.43855 -81.30253 103 ft 17 kts
2026-05-07 15:10 28.43913 -81.30332 104 ft 17 kts 272°
2026-05-07 15:11 28.43919 -81.30479 108 ft 19 kts 272°
2026-05-07 15:11 28.43930 -81.30663 111 ft 27 kts 274°
2026-05-07 15:11 28.43942 -81.30889 110 ft 30 kts 273°
2026-05-07 15:11 28.43942 -81.31128 111 ft 31 kts 269°
2026-05-07 15:12 28.43926 -81.31378 107 ft 33 kts 265°
2026-05-07 15:12 28.43923 -81.31615 110 ft 28 kts 269°
2026-05-07 15:12 28.43928 -81.31828 101 ft 26 kts 294°
2026-05-07 15:12 28.44094 -81.31899 101 ft 27 kts 356°
2026-05-07 15:13 28.44291 -81.31903 102 ft 29 kts 359°
2026-05-07 15:13 28.44499 -81.31905 102 ft 31 kts 359°
2026-05-07 15:13 28.44700 -81.31907 101 ft 27 kts 359°
2026-05-07 15:13 28.44824 -81.31967 100 ft 17 kts 275°
2026-05-07 15:14 28.44825 -81.32107 102 ft 19 kts 269°
2026-05-07 15:14 28.44816 -81.32228 99 ft 7 kts 227°
2026-05-07 15:14 28.44753 -81.32233 101 ft 18 kts 179°
2026-05-07 15:14 28.44319 -81.32227 102 ft 105 kts 180°
2026-05-07 15:15 28.43334 -81.32218 170 ft 170 kts 180°
2026-05-07 15:15 28.42113 -81.32177 1080 ft 179 kts 181°
2026-05-07 15:15 28.40838 -81.32197 1968 ft 188 kts 185°
2026-05-07 15:15 28.39448 -81.32265 2685 ft 214 kts 184°
2026-05-07 15:16 28.37882 -81.32333 3522 ft 220 kts 185°
2026-05-07 15:16 28.36299 -81.32414 4384 ft 240 kts 184°
2026-05-07 15:16 28.34554 -81.32495 5168 ft 259 kts 183°
2026-05-07 15:16 28.32717 -81.32558 6186 ft 264 kts 183°
2026-05-07 15:17 28.30910 -81.32862 7139 ft 269 kts 199°
2026-05-07 15:17 28.29197 -81.33754 8099 ft 272 kts 210°
2026-05-07 15:17 28.27512 -81.34793 9029 ft 277 kts 210°
2026-05-07 15:17 28.25796 -81.35853 9969 ft 282 kts 210°
2026-05-07 15:18 28.24072 -81.36923 10792 ft 287 kts 210°
2026-05-07 15:18 28.22308 -81.38023 11642 ft 290 kts 211°
2026-05-07 15:18 28.20542 -81.39124 12460 ft 294 kts 211°
2026-05-07 15:18 28.18732 -81.40253 13290 ft 298 kts 212°
2026-05-07 15:19 28.16896 -81.41399 14086 ft 303 kts 212°
2026-05-07 15:19 28.15034 -81.42560 14819 ft 307 kts 212°
2026-05-07 15:19 28.13148 -81.43735 15535 ft 310 kts 212°
2026-05-07 15:19 28.11260 -81.44912 16223 ft 314 kts 213°
2026-05-07 15:20 28.09327 -81.46114 16909 ft 318 kts 212°
2026-05-07 15:20 28.07230 -81.46981 17505 ft 331 kts 192°
2026-05-07 15:20 28.04887 -81.46925 18198 ft 342 kts 174°
2026-05-07 15:20 28.02501 -81.46501 18714 ft 348 kts 176°
2026-05-07 15:21 28.00109 -81.46136 19317 ft 350 kts 177°
2026-05-07 15:21 27.97662 -81.45775 19894 ft 354 kts 177°
2026-05-07 15:21 27.95227 -81.45421 20472 ft 357 kts 178°
2026-05-07 15:21 27.92745 -81.45064 21032 ft 360 kts 178°
2026-05-07 15:22 27.90228 -81.44702 21589 ft 363 kts 178°
2026-05-07 15:22 27.87737 -81.44345 22132 ft 366 kts 178°
2026-05-07 15:22 27.85190 -81.43981 22673 ft 370 kts 178°
2026-05-07 15:22 27.82618 -81.43612 23205 ft 373 kts 178°
2026-05-07 15:23 27.80030 -81.43242 23707 ft 376 kts 178°
2026-05-07 15:23 27.77419 -81.42868 24143 ft 378 kts 178°
2026-05-07 15:23 27.74829 -81.42498 24593 ft 380 kts 178°
2026-05-07 15:23 27.72186 -81.42120 25004 ft 382 kts 178°
2026-05-07 15:24 27.69522 -81.41740 25431 ft 385 kts 178°
2026-05-07 15:24 27.66890 -81.41364 25834 ft 387 kts 178°
2026-05-07 15:24 27.64206 -81.40981 26237 ft 389 kts 178°
2026-05-07 15:24 27.61500 -81.40595 26646 ft 392 kts 178°
2026-05-07 15:25 27.58822 -81.40213 27029 ft 394 kts 178°
2026-05-07 15:25 27.56034 -81.39819 27111 ft 407 kts 178°
2026-05-07 15:25 27.53158 -81.39414 27137 ft 421 kts 178°
2026-05-07 15:25 27.50239 -81.39004 27163 ft 433 kts 178°
2026-05-07 15:26 27.47190 -81.38576 27182 ft 445 kts 178°
2026-05-07 15:26 27.44108 -81.38143 27222 ft 456 kts 178°
2026-05-07 15:26 27.40904 -81.37693 27228 ft 466 kts 178°
2026-05-07 15:26 27.37671 -81.37234 27630 ft 466 kts 178°
2026-05-07 15:27 27.34478 -81.36780 27933 ft 469 kts 178°
2026-05-07 15:27 27.31219 -81.36318 28266 ft 471 kts 178°
2026-05-07 15:27 27.27945 -81.35853 28592 ft 474 kts 178°
2026-05-07 15:27 27.24696 -81.35392 28892 ft 476 kts 178°
2026-05-07 15:28 27.21398 -81.34925 29200 ft 478 kts 178°
2026-05-07 15:28 27.18078 -81.34454 29488 ft 480 kts 178°
2026-05-07 15:28 27.14745 -81.33982 29789 ft 483 kts 178°
2026-05-07 15:28 27.11423 -81.33513 30077 ft 485 kts 178°
2026-05-07 15:29 27.08055 -81.33036 30331 ft 487 kts 178°
2026-05-07 15:29 27.04677 -81.32559 30575 ft 489 kts 178°
2026-05-07 15:29 27.01292 -81.32081 30819 ft 491 kts 178°
2026-05-07 15:29 26.97944 -81.31607 31109 ft 491 kts 177°
2026-05-07 15:30 26.94546 -81.31127 31425 ft 491 kts 178°
2026-05-07 15:30 26.91141 -81.30646 31761 ft 490 kts 178°
2026-05-07 15:30 26.87781 -81.30171 32097 ft 489 kts 177°
2026-05-07 15:30 26.84399 -81.29694 32475 ft 488 kts 177°
2026-05-07 15:31 26.81021 -81.29217 32844 ft 487 kts 177°
2026-05-07 15:31 26.77688 -81.28747 33206 ft 486 kts 177°
2026-05-07 15:31 26.74310 -81.28271 33581 ft 485 kts 177°
2026-05-07 15:31 26.70963 -81.27799 33952 ft 485 kts 177°
2026-05-07 15:32 26.67653 -81.27334 34275 ft 484 kts 177°
2026-05-07 15:32 26.64298 -81.26862 34575 ft 484 kts 177°
2026-05-07 15:32 26.60942 -81.26391 34872 ft 483 kts 177°
2026-05-07 15:32 26.57635 -81.25926 35067 ft 485 kts 177°
2026-05-07 15:33 26.50953 -81.24990 35081 ft 483 kts 177°
2026-05-07 15:33 26.45397 -81.24213 35095 ft 483 kts 177°
2026-05-07 15:34 26.38718 -81.23280 35093 ft 483 kts 177°
2026-05-07 15:34 26.32066 -81.22351 35083 ft 483 kts 177°
2026-05-07 15:35 26.25380 -81.21419 35085 ft 483 kts 176°
2026-05-07 15:35 26.18722 -81.20492 35089 ft 483 kts 176°
2026-05-07 15:36 26.12031 -81.19561 35096 ft 483 kts 176°
2026-05-07 15:36 26.05374 -81.18636 35093 ft 483 kts 176°
2026-05-07 15:37 25.98685 -81.17708 35086 ft 483 kts 176°
2026-05-07 15:37 25.92025 -81.16785 35093 ft 484 kts 176°
2026-05-07 15:38 25.85353 -81.15861 35093 ft 484 kts 176°
2026-05-07 15:38 25.78643 -81.14933 35094 ft 484 kts 176°
2026-05-07 15:39 25.71985 -81.14013 35089 ft 484 kts 176°
2026-05-07 15:39 25.65310 -81.13091 35080 ft 484 kts 176°
2026-05-07 15:40 25.58593 -81.12166 35092 ft 485 kts 176°
2026-05-07 15:40 25.51908 -81.11246 35092 ft 485 kts 176°
2026-05-07 15:41 25.45248 -81.10330 35089 ft 485 kts 176°
2026-05-07 15:41 25.38535 -81.09408 35089 ft 485 kts 176°
2026-05-07 15:42 25.31851 -81.08490 35089 ft 485 kts 176°
2026-05-07 15:42 25.25127 -81.07569 35091 ft 485 kts 176°
2026-05-07 15:43 25.18453 -81.06655 35087 ft 485 kts 176°
2026-05-07 15:43 25.11746 -81.05738 35088 ft 485 kts 176°
2026-05-07 15:44 25.05057 -81.04824 35080 ft 485 kts 176°
2026-05-07 15:44 24.98323 -81.03905 35092 ft 485 kts 176°
2026-05-07 15:45 24.91640 -81.02994 35095 ft 485 kts 176°
2026-05-07 15:45 24.84968 -81.02086 35098 ft 485 kts 176°
2026-05-07 15:46 24.74936 -81.00990 35096 ft 479 kts 186°
2026-05-07 15:47 24.68230 -81.01241 35091 ft 480 kts 185°
2026-05-07 15:47 24.61557 -81.01479 35099 ft 481 kts 185°
2026-05-07 15:48 24.54884 -81.01603 35085 ft 482 kts 182°
2026-05-07 15:48 24.48156 -81.01533 35083 ft 482 kts 183°
2026-05-07 15:49 24.41469 -81.01485 35086 ft 482 kts 183°
2026-05-07 15:49 24.34781 -81.01438 35083 ft 482 kts 183°
2026-05-07 15:50 24.28077 -81.01392 35084 ft 482 kts 183°
2026-05-07 15:50 24.21381 -81.01345 35083 ft 482 kts 183°
2026-05-07 15:51 24.14659 -81.01299 35081 ft 482 kts 183°
2026-05-07 15:51 24.07957 -81.01252 35078 ft 482 kts 182°
2026-05-07 15:52 24.01276 -81.01204 35080 ft 482 kts 182°
2026-05-07 15:52 23.94563 -81.00912 35085 ft 483 kts 181°
2026-05-07 15:53 23.87831 -81.00630 35081 ft 483 kts 181°
2026-05-07 15:53 23.81121 -81.00352 35081 ft 483 kts 181°
2026-05-07 15:54 23.74395 -81.00073 35080 ft 483 kts 180°
2026-05-07 15:54 23.67713 -80.99797 35080 ft 483 kts 180°
2026-05-07 15:55 23.60971 -80.99518 35082 ft 483 kts 180°
2026-05-07 15:55 23.54274 -80.99242 35081 ft 483 kts 180°
2026-05-07 15:56 23.47573 -80.98966 35067 ft 483 kts 180°
2026-05-07 15:56 23.40838 -80.98689 35074 ft 483 kts 180°
2026-05-07 15:57 23.34127 -80.98413 35076 ft 482 kts 180°
2026-05-07 15:57 23.27448 -80.98136 35076 ft 483 kts 180°
2026-05-07 15:58 23.20749 -80.97854 35076 ft 483 kts 180°
2026-05-07 15:58 23.14009 -80.97570 35071 ft 482 kts 180°
2026-05-07 15:59 23.07322 -80.97287 35072 ft 483 kts 180°
2026-05-07 15:59 23.00769 -80.98015 35064 ft 471 kts 204°
2026-05-07 16:00 22.94752 -81.00804 35061 ft 472 kts 207°
2026-05-07 16:00 22.88784 -81.03748 35076 ft 472 kts 208°
2026-05-07 16:01 22.82823 -81.06743 35062 ft 471 kts 207°
2026-05-07 16:01 22.76843 -81.09753 35069 ft 472 kts 207°
2026-05-07 16:02 22.70904 -81.12740 35073 ft 472 kts 207°
2026-05-07 16:02 22.64956 -81.15728 35064 ft 472 kts 207°
2026-05-07 16:03 22.58991 -81.18722 35064 ft 472 kts 207°
2026-05-07 16:03 22.53055 -81.21699 35059 ft 472 kts 207°
2026-05-07 16:04 22.47104 -81.24680 35063 ft 473 kts 207°
2026-05-07 16:04 22.41118 -81.27676 35062 ft 473 kts 207°
2026-05-07 16:05 22.35180 -81.30646 35068 ft 472 kts 207°
2026-05-07 16:05 22.29217 -81.33624 35067 ft 471 kts 207°
2026-05-07 16:06 22.23282 -81.36586 35066 ft 471 kts 207°
2026-05-07 16:06 22.17306 -81.39566 35068 ft 472 kts 207°
2026-05-07 16:07 22.11365 -81.42525 35065 ft 472 kts 207°
2026-05-07 16:07 22.05396 -81.45496 35060 ft 472 kts 207°
2026-05-07 16:08 21.99445 -81.48455 35068 ft 472 kts 207°
2026-05-07 16:08 21.93500 -81.51408 35068 ft 472 kts 207°
2026-05-07 16:09 21.87521 -81.54375 35064 ft 472 kts 207°
2026-05-07 16:09 21.81568 -81.57327 35060 ft 473 kts 207°
2026-05-07 16:10 21.75599 -81.60284 35062 ft 473 kts 207°
2026-05-07 16:10 21.69624 -81.63241 35064 ft 473 kts 207°
2026-05-07 16:11 21.63648 -81.66196 35061 ft 473 kts 207°
2026-05-07 16:11 21.57650 -81.69159 35052 ft 472 kts 207°
2026-05-07 16:12 21.51674 -81.72109 35062 ft 474 kts 207°
2026-05-07 16:12 21.45719 -81.75045 35061 ft 474 kts 207°
2026-05-07 16:13 21.39699 -81.78011 35061 ft 474 kts 207°
2026-05-07 16:13 21.33739 -81.80945 35059 ft 474 kts 207°
2026-05-07 16:14 21.27753 -81.83889 35053 ft 474 kts 206°
2026-05-07 16:14 21.21737 -81.86845 35059 ft 474 kts 206°
2026-05-07 16:15 21.15767 -81.89775 35056 ft 474 kts 206°
2026-05-07 16:15 21.09792 -81.92705 35057 ft 474 kts 206°
2026-05-07 16:16 21.03788 -81.95648 35056 ft 474 kts 206°
2026-05-07 16:16 20.97782 -81.98588 35053 ft 474 kts 206°
2026-05-07 16:17 20.91807 -82.01510 35055 ft 474 kts 206°
2026-05-07 16:17 20.85789 -82.04452 35053 ft 474 kts 206°
2026-05-07 16:18 20.79788 -82.07382 35055 ft 474 kts 206°
2026-05-07 16:18 20.73806 -82.10301 35048 ft 474 kts 206°
2026-05-07 16:19 20.67796 -82.13230 35049 ft 474 kts 206°
2026-05-07 16:19 20.61813 -82.16144 35041 ft 474 kts 206°
2026-05-07 16:20 20.55780 -82.19080 35044 ft 475 kts 206°
2026-05-07 16:20 20.49794 -82.21989 35048 ft 475 kts 206°
2026-05-07 16:21 20.43767 -82.24917 35048 ft 475 kts 206°
2026-05-07 16:21 20.37783 -82.27822 35049 ft 475 kts 206°
2026-05-07 16:22 20.32770 -82.30253 35045 ft 475 kts 206°
2026-05-07 16:22 20.25760 -82.33650 35045 ft 475 kts 206°
2026-05-07 16:23 20.20735 -82.36083 35042 ft 475 kts 206°
2026-05-07 16:23 20.14724 -82.38991 35044 ft 475 kts 206°
2026-05-07 16:24 20.08609 -82.41697 35024 ft 477 kts 194°
2026-05-07 16:24 20.02136 -82.43181 35019 ft 478 kts 194°
2026-05-07 16:25 19.95611 -82.44679 35027 ft 479 kts 193°
2026-05-07 16:25 19.89121 -82.46154 35041 ft 479 kts 193°
2026-05-07 16:26 19.82594 -82.47635 35045 ft 479 kts 193°
2026-05-07 16:26 19.76099 -82.49107 35039 ft 479 kts 193°
2026-05-07 16:27 19.69562 -82.50588 35038 ft 479 kts 193°
2026-05-07 16:27 19.63073 -82.52057 35036 ft 479 kts 193°
2026-05-07 16:28 19.56551 -82.53531 35036 ft 479 kts 193°
2026-05-07 16:28 19.50014 -82.55009 35036 ft 479 kts 193°
2026-05-07 16:29 19.43518 -82.56475 35036 ft 479 kts 193°
2026-05-07 16:29 19.36975 -82.57951 35038 ft 479 kts 193°
2026-05-07 16:30 19.30496 -82.59412 35031 ft 479 kts 193°
2026-05-07 16:30 19.23946 -82.60887 35037 ft 479 kts 193°
2026-05-07 16:31 19.17431 -82.62353 35035 ft 479 kts 193°
2026-05-07 16:31 19.10933 -82.63814 35033 ft 479 kts 193°
2026-05-07 16:32 19.04396 -82.65284 35028 ft 479 kts 193°
2026-05-07 16:32 18.97859 -82.66751 35028 ft 479 kts 193°
2026-05-07 16:33 18.91350 -82.68212 35027 ft 480 kts 193°
2026-05-07 16:33 18.84808 -82.69678 35026 ft 480 kts 193°
2026-05-07 16:34 18.78295 -82.71136 35023 ft 480 kts 193°
2026-05-07 16:34 18.71780 -82.72594 35022 ft 480 kts 193°
2026-05-07 16:35 18.65230 -82.74059 35020 ft 479 kts 193°
2026-05-07 16:35 18.58721 -82.75513 35021 ft 480 kts 192°
2026-05-07 16:36 18.52147 -82.76981 35021 ft 481 kts 192°
2026-05-07 16:36 18.45622 -82.78436 35022 ft 481 kts 192°
2026-05-07 16:37 18.39068 -82.79898 35021 ft 479 kts 192°
2026-05-07 16:37 18.32568 -82.81344 35025 ft 479 kts 192°
2026-05-07 16:38 18.26051 -82.82795 35023 ft 480 kts 192°
2026-05-07 16:38 18.19484 -82.84255 35024 ft 480 kts 192°
2026-05-07 16:39 18.12985 -82.85699 35022 ft 480 kts 192°
2026-05-07 16:39 18.06430 -82.87155 35025 ft 480 kts 192°
2026-05-07 16:40 17.99920 -82.88600 35021 ft 480 kts 192°
2026-05-07 16:40 17.93412 -82.90043 35020 ft 480 kts 192°
2026-05-07 16:41 17.86866 -82.91493 35013 ft 480 kts 192°
2026-05-07 16:41 17.80352 -82.92935 35012 ft 480 kts 192°
2026-05-07 16:42 17.73824 -82.94380 35015 ft 480 kts 192°
2026-05-07 16:42 17.67283 -82.95826 35014 ft 480 kts 192°
2026-05-07 16:43 17.60758 -82.97267 35014 ft 480 kts 192°
2026-05-07 16:43 17.54196 -82.98715 35016 ft 480 kts 192°
2026-05-07 16:44 17.47678 -83.00153 35016 ft 480 kts 192°
2026-05-07 16:44 17.41150 -83.01591 35014 ft 480 kts 192°
2026-05-07 16:45 17.34584 -83.03037 35017 ft 480 kts 192°
2026-05-07 16:45 17.28078 -83.04469 35014 ft 480 kts 192°
2026-05-07 16:46 17.21514 -83.05913 35010 ft 480 kts 192°
2026-05-07 16:46 17.14999 -83.07344 35011 ft 480 kts 192°
2026-05-07 16:47 17.08448 -83.08783 35009 ft 480 kts 192°
2026-05-07 16:47 17.01941 -83.10211 35006 ft 480 kts 192°
2026-05-07 16:48 16.95365 -83.11653 35004 ft 480 kts 192°
2026-05-07 16:48 16.88860 -83.13078 35004 ft 479 kts 191°
2026-05-07 16:49 16.82342 -83.14506 35007 ft 479 kts 191°
2026-05-07 16:49 16.75782 -83.15941 35002 ft 479 kts 191°
2026-05-07 16:50 16.69284 -83.17362 35008 ft 478 kts 192°
2026-05-07 16:50 16.62803 -83.18779 35007 ft 478 kts 192°
2026-05-07 16:51 16.56260 -83.20207 35008 ft 478 kts 191°
2026-05-07 16:51 16.49752 -83.21628 35006 ft 478 kts 191°
2026-05-07 16:52 16.43251 -83.23045 35005 ft 479 kts 191°
2026-05-07 16:52 16.36715 -83.24470 35004 ft 478 kts 191°
2026-05-07 16:53 16.30216 -83.25885 35003 ft 478 kts 191°
2026-05-07 16:53 16.23721 -83.27298 34999 ft 478 kts 191°
2026-05-07 16:54 16.17183 -83.28721 35004 ft 478 kts 191°
2026-05-07 16:54 16.10679 -83.30135 35003 ft 478 kts 191°
2026-05-07 16:55 16.04163 -83.31532 35003 ft 478 kts 191°
2026-05-07 16:55 15.97646 -83.32904 35007 ft 478 kts 191°
2026-05-07 16:56 15.91105 -83.34284 35004 ft 478 kts 191°
2026-05-07 16:56 15.81297 -83.36349 35001 ft 480 kts 190°
2026-05-07 16:57 15.74775 -83.37722 35001 ft 479 kts 190°
2026-05-07 16:57 15.68234 -83.39099 35004 ft 479 kts 190°
2026-05-07 16:58 15.61669 -83.40479 35004 ft 480 kts 190°
2026-05-07 16:58 15.55135 -83.41851 35005 ft 480 kts 191°
2026-05-07 16:59 15.48611 -83.43221 35000 ft 481 kts 190°
2026-05-07 16:59 15.42069 -83.44593 34998 ft 481 kts 190°
2026-05-07 17:00 15.35499 -83.45970 34987 ft 481 kts 190°
2026-05-07 17:00 15.28936 -83.47346 34987 ft 481 kts 190°
2026-05-07 17:01 15.22406 -83.48714 34978 ft 480 kts 190°
2026-05-07 17:01 15.15831 -83.50090 34977 ft 481 kts 190°
2026-05-07 17:02 15.09282 -83.51459 34976 ft 481 kts 190°
2026-05-07 17:02 15.02704 -83.52834 34977 ft 481 kts 190°
2026-05-07 17:03 14.96159 -83.54201 34970 ft 482 kts 190°
2026-05-07 17:03 14.89563 -83.55578 34969 ft 482 kts 190°
2026-05-07 17:04 14.83027 -83.56941 34966 ft 482 kts 190°
2026-05-07 17:04 14.76472 -83.58308 34963 ft 482 kts 190°
2026-05-07 17:05 14.69875 -83.59683 34964 ft 482 kts 189°
2026-05-07 17:05 14.63305 -83.61051 34958 ft 482 kts 190°
2026-05-07 17:06 14.56716 -83.62423 34963 ft 482 kts 190°
2026-05-07 17:06 14.50146 -83.63790 34964 ft 482 kts 190°
2026-05-07 17:07 14.43584 -83.65153 34962 ft 482 kts 190°
2026-05-07 17:07 14.37033 -83.66513 34959 ft 482 kts 190°
2026-05-07 17:08 14.30447 -83.67881 34957 ft 482 kts 190°
2026-05-07 17:08 14.23883 -83.69242 34952 ft 482 kts 190°
2026-05-07 17:09 14.17288 -83.70610 34952 ft 482 kts 189°
2026-05-07 17:09 14.10729 -83.71970 34956 ft 481 kts 190°
2026-05-07 17:10 14.05246 -83.73106 34957 ft 481 kts 190°
2026-05-07 17:10 13.98660 -83.74469 34953 ft 482 kts 190°
2026-05-07 17:11 13.92093 -83.75827 34949 ft 482 kts 190°
2026-05-07 17:11 13.85527 -83.77185 34952 ft 481 kts 190°
2026-05-07 17:12 13.78978 -83.78538 34943 ft 481 kts 190°
2026-05-07 17:12 13.72423 -83.79892 34945 ft 481 kts 189°
2026-05-07 17:13 13.65873 -83.81244 34951 ft 480 kts 190°
2026-05-07 17:13 13.59331 -83.82595 34953 ft 481 kts 190°
2026-05-07 17:14 13.52764 -83.83948 34957 ft 481 kts 190°
2026-05-07 17:14 13.46181 -83.85304 34956 ft 481 kts 190°
2026-05-07 17:15 13.39661 -83.86647 34961 ft 480 kts 189°
2026-05-07 17:15 13.33094 -83.88000 34954 ft 479 kts 189°
2026-05-07 17:16 13.26579 -83.89339 34960 ft 479 kts 189°
2026-05-07 17:16 13.20018 -83.90688 34960 ft 479 kts 189°
2026-05-07 17:17 13.13509 -83.92026 34956 ft 478 kts 189°
2026-05-07 17:17 13.06972 -83.93369 34959 ft 478 kts 189°
2026-05-07 17:18 13.00436 -83.94710 34959 ft 478 kts 189°
2026-05-07 17:18 12.93926 -83.96046 34965 ft 478 kts 189°
2026-05-07 17:19 12.87418 -83.97380 34963 ft 478 kts 189°
2026-05-07 17:19 12.80881 -83.98720 34972 ft 478 kts 189°
2026-05-07 17:20 12.74386 -84.00051 34972 ft 478 kts 189°
2026-05-07 17:20 12.67848 -84.01389 34973 ft 478 kts 189°
2026-05-07 17:21 12.61333 -84.02722 34974 ft 478 kts 189°
2026-05-07 17:21 12.54825 -84.04053 34974 ft 478 kts 189°
2026-05-07 17:22 12.48282 -84.05391 34973 ft 478 kts 189°
2026-05-07 17:22 12.41768 -84.06722 34968 ft 478 kts 189°
2026-05-07 17:23 12.35262 -84.08050 34969 ft 478 kts 189°
2026-05-07 17:23 12.28714 -84.09387 34970 ft 479 kts 189°
2026-05-07 17:24 12.22197 -84.10716 34972 ft 479 kts 189°
2026-05-07 17:24 12.15630 -84.12055 34968 ft 479 kts 189°
2026-05-07 17:25 12.09110 -84.13383 34968 ft 479 kts 189°
2026-05-07 17:25 12.02587 -84.14712 34968 ft 479 kts 189°
2026-05-07 17:26 11.96055 -84.16043 34972 ft 479 kts 189°
2026-05-07 17:26 11.89521 -84.17373 34972 ft 480 kts 189°
2026-05-07 17:27 11.82950 -84.18709 34971 ft 480 kts 189°
2026-05-07 17:27 11.76386 -84.20042 34969 ft 480 kts 189°
2026-05-07 17:28 11.69847 -84.21372 34967 ft 480 kts 189°
2026-05-07 17:28 11.63299 -84.22702 34965 ft 480 kts 189°
2026-05-07 17:29 11.56717 -84.24038 34966 ft 481 kts 189°
2026-05-07 17:29 11.50158 -84.25369 34967 ft 482 kts 189°
2026-05-07 17:30 11.43582 -84.26702 34968 ft 482 kts 189°
2026-05-07 17:30 11.36992 -84.28038 34963 ft 482 kts 189°
2026-05-07 17:31 11.30432 -84.29367 34966 ft 482 kts 189°
2026-05-07 17:31 11.23864 -84.30698 34961 ft 481 kts 189°
2026-05-07 17:32 11.17247 -84.32038 34970 ft 483 kts 189°
2026-05-07 17:32 11.10681 -84.33366 34963 ft 483 kts 189°
2026-05-07 17:33 11.04101 -84.34696 34961 ft 483 kts 189°
2026-05-07 17:33 11.00794 -84.35366 34841 ft 478 kts 189°
2026-05-07 17:33 10.97529 -84.36025 34031 ft 480 kts 189°
2026-05-07 17:34 10.94218 -84.36694 32728 ft 484 kts 189°
2026-05-07 17:34 10.90959 -84.37366 31864 ft 483 kts 191°
2026-05-07 17:34 10.87716 -84.38360 31048 ft 485 kts 195°
2026-05-07 17:34 10.84496 -84.39418 30189 ft 487 kts 195°
2026-05-07 17:35 10.81295 -84.40479 29155 ft 490 kts 196°
2026-05-07 17:35 10.78034 -84.41563 28114 ft 493 kts 195°
2026-05-07 17:35 10.74763 -84.42650 27119 ft 494 kts 195°
2026-05-07 17:35 10.71485 -84.43740 26182 ft 495 kts 195°
2026-05-07 17:36 10.68214 -84.44828 25316 ft 494 kts 195°
2026-05-07 17:36 10.64951 -84.45913 24573 ft 490 kts 195°
2026-05-07 17:36 10.61750 -84.46978 23834 ft 488 kts 195°
2026-05-07 17:36 10.58534 -84.48047 23374 ft 478 kts 194°
2026-05-07 17:37 10.55472 -84.49066 23060 ft 454 kts 194°
2026-05-07 17:37 10.52545 -84.50038 22852 ft 428 kts 194°
2026-05-07 17:37 10.49805 -84.50949 22613 ft 407 kts 194°
2026-05-07 17:37 10.47163 -84.51826 22385 ft 388 kts 194°
2026-05-07 17:38 10.44632 -84.52665 21930 ft 382 kts 194°
2026-05-07 17:38 10.42052 -84.53521 21423 ft 393 kts 194°
2026-05-07 17:38 10.39439 -84.54388 20974 ft 396 kts 194°
2026-05-07 17:38 10.36837 -84.55252 20534 ft 396 kts 195°
2026-05-07 17:39 10.34218 -84.56120 20083 ft 394 kts 195°
2026-05-07 17:39 10.31637 -84.56976 19643 ft 393 kts 195°
2026-05-07 17:39 10.29031 -84.57840 18968 ft 397 kts 195°
2026-05-07 17:39 10.26378 -84.58720 18155 ft 397 kts 195°
2026-05-07 17:40 10.23794 -84.59577 17358 ft 390 kts 195°
2026-05-07 17:40 10.21230 -84.60427 16625 ft 383 kts 195°
2026-05-07 17:40 10.18708 -84.61263 15928 ft 376 kts 195°
2026-05-07 17:40 10.16236 -84.61952 15182 ft 367 kts 184°
2026-05-07 17:41 10.13747 -84.61754 14549 ft 353 kts 160°
2026-05-07 17:41 10.11588 -84.60684 13947 ft 340 kts 146°
2026-05-07 17:41 10.09600 -84.59471 13316 ft 334 kts 147°
2026-05-07 17:41 10.07621 -84.58277 12666 ft 328 kts 147°
2026-05-07 17:42 10.05669 -84.57096 12053 ft 323 kts 147°
2026-05-07 17:42 10.03743 -84.55931 11445 ft 319 kts 147°
2026-05-07 17:42 10.01867 -84.54796 10855 ft 314 kts 148°
2026-05-07 17:42 10.00006 -84.53671 10431 ft 305 kts 147°
2026-05-07 17:43 9.98205 -84.52581 10055 ft 295 kts 147°
2026-05-07 17:43 9.96469 -84.51529 9537 ft 291 kts 148°
2026-05-07 17:43 9.94740 -84.50483 9032 ft 286 kts 147°
2026-05-07 17:43 9.93052 -84.49461 8588 ft 278 kts 147°
2026-05-07 17:44 9.91478 -84.48424 8261 ft 266 kts 137°
2026-05-07 17:44 9.90402 -84.46954 7883 ft 256 kts 111°
2026-05-07 17:44 9.90095 -84.45224 7524 ft 244 kts 85°
2026-05-07 17:44 9.90557 -84.43649 7207 ft 231 kts 63°
2026-05-07 17:45 9.91291 -84.42233 6910 ft 220 kts 64°
2026-05-07 17:45 9.91904 -84.40855 6625 ft 209 kts 68°
2026-05-07 17:45 9.92431 -84.39519 6359 ft 193 kts 69°
2026-05-07 17:45 9.92884 -84.38321 6101 ft 177 kts 69°
2026-05-07 17:46 9.93318 -84.37159 5957 ft 174 kts 68°
2026-05-07 17:46 9.93746 -84.36016 5741 ft 170 kts 68°
2026-05-07 17:46 9.94153 -84.34928 5527 ft 165 kts 68°
2026-05-07 17:46 9.94558 -84.33839 5321 ft 163 kts 67°
2026-05-07 17:47 9.94950 -84.32788 5175 ft 156 kts 68°
2026-05-07 17:47 9.95332 -84.31765 4958 ft 155 kts 68°
2026-05-07 17:47 9.95709 -84.30750 4768 ft 155 kts 66°
2026-05-07 17:47 9.96084 -84.29733 4539 ft 153 kts 67°
2026-05-07 17:48 9.96473 -84.28733 4406 ft 153 kts 69°
2026-05-07 17:48 9.96853 -84.27728 4190 ft 152 kts 72°
2026-05-07 17:48 9.97206 -84.26716 3962 ft 152 kts 71°
2026-05-07 17:48 9.97581 -84.25714 3756 ft 149 kts 71°
2026-05-07 17:49 9.97945 -84.24740 3550 ft 148 kts 70°
2026-05-07 17:49 9.98313 -84.23779 3366 ft 146 kts 70°
2026-05-07 17:49 9.98673 -84.22803 3142 ft 151 kts 71°
2026-05-07 17:49 9.99038 -84.21824 3020 ft 138 kts 71°
2026-05-07 17:50 9.99324 -84.21058 3010 ft 86 kts 69°
2026-05-07 17:50 9.99469 -84.20674 3013 ft 38 kts 69°
2026-05-07 17:50 9.99537 -84.20497 3009 ft 20 kts 68°
2026-05-07 17:50 9.99592 -84.20439 3010 ft 10 kts
2026-05-07 17:51 9.99614 -84.20443 3012 ft 0 kts 340°
2026-05-07 17:51 9.99622 -84.20447 3012 ft 3 kts 335°
2026-05-07 17:51 9.99624 -84.20448 3013 ft 0 kts 334°
2026-05-07 17:51 9.99644 -84.20444 3019 ft 5 kts 33°
2026-05-07 17:52 9.99679 -84.20418 3016 ft 6 kts 358°
2026-05-07 17:52 9.99704 -84.20424 3018 ft 2 kts 345°
2026-05-07 17:52 9.99712 -84.20427 3018 ft 0 kts 338°
2026-05-07 17:52 9.99716 -84.20429 3023 ft 0 kts 338°